| time (UTC) | temp F | wind direction | speed MPH | gust MPH | rain 1hr in | rain 24hr in | rain mn in | humidity % | barometer mb |
| 20260504160103 | 79 | 329 | 5.0 | 11.0 | 0.00 | 0.00 | 0.00 | 40 | 1018.3 |
| 20260504081604 | 62 | 333 | 2.0 | 4.0 | 0.00 | 0.00 | 0.00 | 87 | 1017.3 |
| 20260504044554 | 66 | 352 | 1.0 | 3.0 | 0.00 | 0.00 | 0.00 | 79 | 1018.4 |
| 20260504043056 | 66 | 360 | 1.0 | 4.0 | 0.00 | 0.00 | 0.00 | 78 | 1018.6 |
| 20260504041554 | 66 | 348 | 0.0 | 3.0 | 0.00 | 0.00 | 0.00 | 77 | 1018.5 |
| 20260504040059 | 67 | 352 | 0.0 | 3.0 | 0.00 | 0.00 | 0.00 | 76 | 1018.6 |
| 20260504034557 | 67 | 336 | 2.0 | 5.0 | 0.00 | 0.00 | 0.00 | 75 | 1018.6 |
| 20260504033055 | 67 | 42 | 1.0 | 5.0 | 0.00 | 0.00 | 0.00 | 74 | 1018.6 |
| 20260504031551 | 67 | 34 | 2.0 | 5.0 | 0.00 | 0.00 | 0.00 | 74 | 1018.4 |
| 20260504030055 | 67 | 360 | 2.0 | 5.0 | 0.00 | 0.00 | 0.00 | 73 | 1018.5 |
| 20260504024555 | 67 | 28 | 4.0 | 9.0 | 0.00 | 0.00 | 0.00 | 72 | 1018.6 |
| 20260504023054 | 67 | 344 | 2.0 | 7.0 | 0.00 | 0.00 | 0.00 | 73 | 1018.6 |
| 20260504021554 | 68 | 26 | 1.0 | 9.0 | 0.00 | 0.00 | 0.00 | 72 | 1018.5 |
| 20260504020115 | 68 | 32 | 3.0 | 8.0 | 0.00 | 0.00 | 0.00 | 72 | 1018.3 |
| 20260504014558 | 68 | 19 | 2.0 | 7.0 | 0.00 | 0.00 | 0.00 | 71 | 1018.2 |
| 20260504013110 | 68 | 23 | 2.0 | 9.0 | 0.00 | 0.00 | 0.00 | 71 | 1018.0 |
| 20260504011554 | 68 | 50 | 2.0 | 9.0 | 0.00 | 0.00 | 0.00 | 70 | 1017.9 |
| 20260504010055 | 69 | 34 | 3.0 | 9.0 | 0.00 | 0.00 | 0.00 | 69 | 1017.9 |
| 20260504004555 | 69 | 53 | 3.0 | 8.0 | 0.00 | 0.00 | 0.00 | 68 | 1017.7 |
| 20260504003050 | 70 | 46 | 2.0 | 8.0 | 0.00 | 0.00 | 0.00 | 67 | 1017.7 |
| 20260504001554 | 71 | 17 | 3.0 | 10.0 | 0.00 | 0.00 | 0.00 | 65 | 1017.6 |
| 20260504000053 | 71 | 47 | 4.0 | 9.0 | 0.00 | 0.00 | 0.00 | 63 | 1017.5 |
| 20260503234555 | 72 | 55 | 4.0 | 11.0 | 0.00 | 0.00 | 0.00 | 61 | 1017.2 |
| 20260503233053 | 74 | 49 | 4.0 | 15.0 | 0.00 | 0.00 | 0.00 | 59 | 1017.2 |
| 20260503231555 | 74 | 54 | 4.0 | 10.0 | 0.00 | 0.00 | 0.00 | 55 | 1017.0 |
| 20260503230052 | 75 | 301 | 4.0 | 10.0 | 0.00 | 0.00 | 0.00 | 54 | 1017.1 |
| 20260503224559 | 76 | 352 | 5.0 | 12.0 | 0.00 | 0.00 | 0.00 | 53 | 1016.9 |
| 20260503223051 | 76 | 297 | 6.0 | 14.0 | 0.00 | 0.00 | 0.00 | 53 | 1017.0 |
| 20260503221600 | 77 | 360 | 6.0 | 12.0 | 0.00 | 0.00 | 0.00 | 53 | 1017.0 |
| 20260503220052 | 77 | 321 | 4.0 | 13.0 | 0.00 | 0.00 | 0.00 | 55 | 1017.0 |
| 20260503214551 | 77 | 360 | 2.0 | 10.0 | 0.00 | 0.00 | 0.00 | 54 | 1016.9 |
| 20260503213054 | 76 | 13 | 3.0 | 10.0 | 0.00 | 0.00 | 0.00 | 55 | 1016.7 |
| 20260503211553 | 76 | 18 | 5.0 | 11.0 | 0.00 | 0.00 | 0.00 | 54 | 1016.8 |
| 20260503210053 | 77 | 326 | 9.0 | 16.0 | 0.00 | 0.00 | 0.00 | 54 | 1016.8 |
| 20260503204614 | 76 | 352 | 3.0 | 10.0 | 0.00 | 0.05 | 0.00 | 56 | 1017.0 |
| 20260503203059 | 77 | 342 | 3.0 | 11.0 | 0.00 | 0.05 | 0.00 | 54 | 1017.2 |
| 20260503201553 | 77 | 28 | 4.0 | 17.0 | 0.00 | 0.05 | 0.00 | 55 | 1017.2 |
| 20260503200051 | 76 | 331 | 3.0 | 11.0 | 0.00 | 0.05 | 0.00 | 54 | 1017.3 |
| 20260503194551 | 76 | 5 | 8.0 | 14.0 | 0.00 | 0.16 | 0.00 | 56 | 1017.5 |
| 20260503193056 | 78 | 37 | 6.0 | 15.0 | 0.00 | 0.16 | 0.00 | 55 | 1017.8 |
| 20260503191608 | 78 | 321 | 4.0 | 12.0 | 0.00 | 0.16 | 0.00 | 56 | 1018.0 |
| 20260503190050 | 78 | 337 | 7.0 | 13.0 | 0.00 | 0.16 | 0.00 | 55 | 1018.2 |
| 20260503184552 | 78 | 9 | 4.0 | 13.0 | 0.00 | 0.43 | 0.00 | 56 | 1018.4 |
| 20260503183050 | 77 | 48 | 6.0 | 14.0 | 0.00 | 0.43 | 0.00 | 59 | 1018.5 |
| 20260503181553 | 76 | 338 | 3.0 | 12.0 | 0.00 | 0.43 | 0.00 | 57 | 1018.5 |
| 20260503180100 | 77 | 352 | 9.0 | 15.0 | 0.00 | 0.43 | 0.00 | 61 | 1018.6 |
| 20260503174554 | 75 | 342 | 5.0 | 13.0 | 0.00 | 0.43 | 0.00 | 62 | 1019.1 |
| 20260503173051 | 74 | 321 | 4.0 | 10.0 | 0.00 | 0.43 | 0.00 | 64 | 1018.9 |
| 20260503171554 | 76 | 351 | 5.0 | 10.0 | 0.00 | 0.43 | 0.00 | 62 | 1019.3 |
| 20260503170105 | 75 | 316 | 6.0 | 13.0 | 0.00 | 0.43 | 0.00 | 65 | 1019.4 |